Volver al catálogo

THOR ABLESTAR DEB

ActivoLEO
NORAD 324·DEBRIS·🇺🇸 United States

Lanzado Jun 29, 1961 desde Cape Canaveral Space Force Station

Loading…

Próximos Pases (próximas 24 horas)

TLE

ActualizadoSource: Space-Track

Época: Sep 14, 2026, 03:39 UTC

1 00324U 61015DA  26257.15275293  .00000470  00000-0  28571-3 0  9995
2 00324  66.8699 166.1015 0071522 317.3332  42.2217 14.13475534335640

Sigue THOR ABLESTAR DEB en tiempo real con AllMySat

Download on the App Store